Regional Weather Roundup
Issued by NWS

Home | Current Version | Previous Version | Graphics & Text | Print | Product List | Glossary On
Versions: 1 2 3 4 5 6 7 8 9 10 11 12 13 14 15 16 17 18 19 20 21 22 23 24 25 26 27 28 29 30 31 32 33 34 35 36 37 38 39 40 41 42 43 44 45 46 47 48 49 50
000
ASUS44 KMEG 250210
RWRTN
TENNESSEE HOURLY STATE WEATHER ROUNDUP
NATIONAL WEATHER SERVICE MEMPHIS TN
900 PM CDT FRI OCT 24 2014

TNZ002-004-019-021-049-052-054-088>092-250300-
WEST TENNESSEE

CITY           SKY/WX    TMP DP  RH WIND       PRES   REMARKS
MEMPHIS INTL   PTCLDY    60  55  83 S5        30.09S
NWS MEMPHIS      N/A     57 N/A N/A MISG        N/A
JACKSON        CLEAR     53  51  93 CALM      30.09R
DYERSBURG      CLEAR     55  45  67 CALM      30.10R
UNION CITY     CLEAR     52  50  93 CALM      30.07S
PARIS          CLEAR     48  46  93 CALM      30.09S
HUNTINGDON     CLEAR     50  48  92 CALM      30.09S
LEXINGTON      CLEAR     52  52 100 CALM      30.08S
SAVANNAH       CLEAR     50  50 100 CALM      30.09S
$$

TNZ008-025-027-028-033-062-065-066-250300-
NORTH MIDDLE TENNESSEE

CITY           SKY/WX    TMP DP  RH WIND       PRES   REMARKS
NASHVILLE      PTCLDY    56  47  71 CALM      30.09R
CLARKSVILLE    CLEAR     53  50  89 CALM      30.08S
SMYRNA         CLEAR     51  47  86 CALM      30.10R
COOKEVILLE     CLEAR     46  45  93 CALM      30.08S
CROSSVILLE     CLEAR     48  39  71 CALM      30.09S
$$

TNZ061-075-076-078-094-096-097-250300-
SOUTH MIDDLE TENNESSEE

CITY           SKY/WX    TMP DP  RH WIND       PRES   REMARKS
FAYETTEVILLE   CLEAR     52  41  66 NE6       30.09S
TULLAHOMA      CLEAR     48  43  81 CALM      30.10S
WINCHESTER     CLEAR     46  45  93 CALM      30.09F
MCMINNVILLE    CLEAR     46  45  93 CALM      30.09S
COLUMBIA       CLEAR     50  50 100 CALM      30.08R
SHELBYVILLE    CLEAR     50  48  93 CALM      30.10R
$$

TNZ017-018-042-046-047-250300-
NORTHEAST TENNESSEE

CITY           SKY/WX    TMP DP  RH WIND       PRES   REMARKS
TRI CITIES     CLEAR     46  41  82 CALM      30.08R
ELIZABETHTON   CLEAR     41  39  93 CALM      30.08S
$$

TNZ012-013-036-069-073-074-250300-
CENTRAL EAST TENNESSEE

CITY           SKY/WX    TMP DP  RH WIND       PRES   REMARKS
KNOXVILLE      CLEAR     51  44  77 CALM      30.06R
OAK RIDGE      CLEAR     51  46  83 CALM      30.09R
GATLINBURG     CLEAR     46  43  87 CALM      30.07S
MORRISTOWN     CLEAR     48  45  87 CALM      30.08S
$$

TNZ083-085-099-250300-
SOUTHEAST TENNESSEE

CITY           SKY/WX    TMP DP  RH WIND       PRES   REMARKS
CHATTANOOGA    PTCLDY    54  47  77 CALM      30.07R
$$

SKY/WX REPORTED AS FAIR MEANS FEW OR NO CLOUDS BELOW
12 THOUSAND FEET.




USA.gov is the U.S. government's official web portal to all federal, state and local government web resources and services.